Aeroporto :
LOGIN :

Iscrizione | Disclaimer

   EN    FR    IT 

 










Sommario :    VFR   VFR Marginale   IFR   IFR Intensivo   IFR Molto Intensivo
Visibilità : 
Base nubi : 
>= 8 km
>= 3000ft
5 / 8 km
1000 / 3000 ft
1500m / 5 km
500 / 1000 ft
800 / 1500m
200 / 500 ft
< 800m
< 200 ft
Simboli :   Temporali  Nebbia  Neve Forte  Precipitazioni Forti  Vento > 20 kt
SIGMETs :   Varie  Temporali  Ghiacco  Turbolenza  Onda orograficha  Ceneri Vulcaniche






- Altitudine del aeroporto : 2555 ft
- Codice IATA : ADJ


OJAM - Marka Int.

ULTIMO METAR :
  • 251400Z 09004KT 4000 HZ FEW030 SCT080 27/00 Q1015 NOSIG

METARs OBSOLETI :
  • 251300Z 08005KT 4000 HZ FEW030 SCT035 26/M01 Q1015 NOSIG
  • 251200Z 09008KT 4000 HZ FEW035 SCT080 27/M01 Q1015 NOSIG

TAF TAF OJAM
Valido dal 25 a 12 ore il 26 a 18 ore UTC


251100Z 2512/2618 12008KT 5000 HZ NSC
TEMPO 2512/2516 11016KT 3000 BLDU SCT030
FIR OJAC / Asia



MetMap, La meteo Aeronautica in un colpo d'occhio ! - Copyright ORBIFLY Dicembre 2007 - Disclaimer

ORBIFLY MET'MAP TEAM :

Programmazione e sviluppo : Alexandra Zaïnal
Concezione : Baudouin d'Aumeries
Aiuto per la programmazione : Marc-Olivier Méhu
Supporto tecnico e logistico : Manuel Goepfert
Aiuto per la traduzione : Arnaldo La Scala

Contatto : metmap@orbifly.com




FONTI E CREDITI :

   NOAA